Date String (YYYY-MM-DD hh:mm:ss) UTC,Instrument flags,absolute air pressure of the measurement (hPa),sample flow rate (lpm),inlet stack bypass flow (lpm),air temperature of the measurement (°C),ambient temperature measured by the external sensor (°C),aerosol sample conditioner tube jacket temperature (°C),OPC LED temperature (°C),internal box temperature (°C),relative humidity of the measurement (%),span deviation,mass concentration of particles derived from Lorenz-Mie calculation of OPC scattering (μg/m³),mass concentration of particles derived from Lorenz-Mie calculation of OPC scattering (μg/m³),mass concentration of particles derived from Lorenz-Mie calculation of OPC scattering (μg/m³)
DateTimeUTC,F1_M11,P_M11,Q1_M11,Q2_M11,T1_M11,T2_M11,T3_M11,T4_M11,T5_M11,U1_M11,ZSPAN_M11,X0_M11,X2_M11,X1_M11
2023-12-26 22:00:00,SystemResetWarning,0823.1,5.00,000.00,018.8,018.1,000.0,027.2,020.0,15.0,0000.0,0007.29,0002.71,0001.93
2023-12-26 22:01:00,SystemResetWarning,0822.9,5.00,000.00,018.8,018.1,000.0,027.2,020.0,14.8,0000.0,0007.38,0002.72,0001.93
2023-12-26 22:02:00,SystemResetWarning,0823.1,5.00,000.00,018.8,018.1,000.0,027.2,020.0,14.7,0000.0,0007.42,0002.69,0001.94
2023-12-26 22:03:00,SystemResetWarning,0823.2,5.00,000.00,018.8,018.0,000.0,027.2,020.0,14.5,0000.0,0008.40,0002.74,0001.96
2023-12-26 22:04:00,SystemResetWarning,0823.2,5.00,000.00,018.8,018.0,000.0,027.2,020.0,14.2,0000.0,0008.38,0002.76,0001.97
2023-12-26 22:05:00,SystemResetWarning,0823.0,5.00,000.00,018.8,018.0,000.0,027.2,020.0,14.1,0000.0,0008.55,0002.77,0001.97
2023-12-26 22:06:00,SystemResetWarning,0823.1,5.01,000.00,018.8,018.0,000.0,027.2,020.0,14.1,0000.0,0009.07,0002.79,0001.97
2023-12-26 22:07:00,SystemResetWarning,0823.1,5.00,000.00,018.8,018.1,000.0,027.2,020.0,14.2,0000.0,0009.09,0002.80,0001.97
2023-12-26 22:08:00,SystemResetWarning,0823.2,5.01,000.00,018.8,018.1,000.0,027.2,020.0,13.9,0000.0,0008.48,0002.79,0001.96
2023-12-26 22:09:00,SystemResetWarning,0823.2,5.00,000.00,018.8,018.1,000.0,027.2,020.0,13.8,0000.0,0008.72,0002.85,0001.96
2023-12-26 22:10:00,SystemResetWarning,0823.2,5.00,000.00,018.8,018.1,000.0,027.2,020.0,13.6,0000.0,0008.44,0002.85,0001.95
2023-12-26 22:11:00,SystemResetWarning,0823.3,4.99,000.00,018.8,018.1,000.0,027.2,020.1,13.6,0000.0,0008.15,0002.79,0001.92
2023-12-26 22:12:00,SystemResetWarning,0823.3,4.99,000.00,018.9,018.1,000.0,027.2,020.0,13.7,0000.0,0008.18,0002.79,0001.88
2023-12-26 22:13:00,SystemResetWarning,0823.4,5.00,000.00,018.9,018.1,000.0,027.2,020.1,13.7,0000.0,0008.29,0002.80,0001.83
2023-12-26 22:14:00,SystemResetWarning,0823.4,5.01,000.00,018.9,018.2,000.0,027.2,020.1,13.6,0000.0,0006.94,0002.67,0001.77
2023-12-26 22:15:00,SystemResetWarning,0823.4,5.01,000.00,018.9,018.2,000.0,027.2,020.1,13.6,0000.0,0006.38,0002.55,0001.73
2023-12-26 22:16:00,SystemResetWarning,0823.3,5.00,000.00,018.9,018.2,000.0,027.2,020.1,13.4,0000.0,0006.82,0002.52,0001.69
2023-12-26 22:17:00,SystemResetWarning,0823.4,5.00,000.00,018.9,018.3,000.0,027.2,020.1,13.1,0000.0,0007.61,0002.51,0001.65
2023-12-26 22:18:00,SystemResetWarning,0823.4,5.00,000.00,018.9,018.3,000.0,027.2,020.1,12.9,0000.0,0007.72,0002.43,0001.60
2023-12-26 22:19:00,SystemResetWarning,0823.4,5.00,000.00,018.9,018.3,000.0,027.2,020.1,13.0,0000.0,0008.39,0002.35,0001.54
2023-12-26 22:20:00,SystemResetWarning,0823.4,5.00,000.00,018.9,018.3,000.0,027.2,020.1,13.0,0000.0,0008.47,0002.25,0001.49
2023-12-26 22:21:00,SystemResetWarning,0823.4,5.00,000.00,018.9,018.3,000.0,027.2,020.1,13.1,0000.0,0008.96,0002.15,0001.45
2023-12-26 22:22:00,SystemResetWarning,0823.4,4.99,000.00,018.9,018.2,000.0,027.2,020.1,13.2,0000.0,0008.96,0002.12,0001.42
2023-12-26 22:23:00,SystemResetWarning,0823.4,4.99,000.00,018.9,018.2,000.0,027.2,020.1,13.3,0000.0,0008.83,0002.08,0001.39
2023-12-26 22:24:00,SystemResetWarning,0823.5,5.00,000.00,018.9,018.2,000.0,027.2,020.1,13.1,0000.0,0008.61,0001.98,0001.36
2023-12-26 22:25:00,SystemResetWarning,0823.5,5.01,000.00,018.9,018.2,000.0,027.2,020.1,13.2,0000.0,0008.57,0001.99,0001.35
2023-12-26 22:26:00,SystemResetWarning,0823.5,5.00,000.00,018.9,018.3,000.0,027.2,020.2,13.4,0000.0,0008.64,0001.99,0001.32
2023-12-26 22:27:00,SystemResetWarning,0823.5,5.00,000.00,018.9,018.3,000.0,027.2,020.2,13.3,0000.0,0008.83,0001.98,0001.29
2023-12-26 22:28:00,SystemResetWarning,0823.5,5.00,000.00,018.9,018.3,000.0,027.2,020.2,13.3,0000.0,0007.90,0001.95,0001.26
2023-12-26 22:29:00,SystemResetWarning,0823.4,4.99,000.00,018.9,018.3,000.0,027.2,020.2,13.2,0000.0,0007.72,0001.98,0001.26
2023-12-26 22:30:00,SystemResetWarning,0823.4,4.99,000.00,018.9,018.4,000.0,027.2,020.3,13.1,0000.0,0006.83,0001.99,0001.26
2023-12-26 22:31:00,SystemResetWarning,0823.5,4.99,000.00,018.9,018.4,000.0,027.2,020.3,12.9,0000.0,0006.21,0001.97,0001.24
2023-12-26 22:32:00,SystemResetWarning,0823.5,5.00,000.00,019.0,018.4,000.0,027.2,020.3,12.8,0000.0,0005.78,0001.97,0001.24
2023-12-26 22:33:00,SystemResetWarning,0823.6,5.01,000.00,019.0,018.4,000.0,027.3,020.3,13.0,0000.0,0005.90,0001.98,0001.23
2023-12-26 22:34:00,SystemResetWarning,0823.6,5.00,000.00,019.0,018.4,000.0,027.3,020.3,13.4,0000.0,0006.31,0001.98,0001.23
2023-12-26 22:35:00,SystemResetWarning,0823.6,4.99,000.00,019.0,018.4,000.0,027.3,020.3,14.0,0000.0,0007.36,0001.96,0001.24
2023-12-26 22:36:00,SystemResetWarning,0823.7,4.99,000.00,019.0,018.4,000.0,027.3,020.3,14.7,0000.0,0007.74,0001.94,0001.22
2023-12-26 22:37:00,SystemResetWarning,0823.7,5.00,000.00,019.0,018.4,000.0,027.3,020.3,14.2,0000.0,0007.73,0001.97,0001.22
2023-12-26 22:38:00,SystemResetWarning,0823.7,5.01,000.00,019.0,018.4,000.0,027.3,020.3,13.7,0000.0,0007.13,0001.98,0001.24
2023-12-26 22:39:00,SystemResetWarning,0823.7,5.01,000.00,019.0,018.4,000.0,027.3,020.3,14.1,0000.0,0007.11,0001.97,0001.26
2023-12-26 22:40:00,SystemResetWarning,0823.7,5.00,000.00,019.0,018.5,000.0,027.3,020.3,14.3,0000.0,0007.11,0001.96,0001.26
2023-12-26 22:41:00,SystemResetWarning,0823.7,5.00,000.00,019.1,018.5,000.0,027.3,020.4,15.1,0000.0,0007.00,0001.95,0001.27
2023-12-26 22:42:00,SystemResetWarning,0823.7,5.00,000.00,019.1,018.4,000.0,027.3,020.4,14.5,0000.0,0006.97,0001.92,0001.28
2023-12-26 22:43:00,SystemResetWarning,0823.7,5.00,000.00,019.1,018.4,000.0,027.3,020.4,14.3,0000.0,0006.40,0001.95,0001.29
2023-12-26 22:44:00,SystemResetWarning,0823.7,5.00,000.00,019.1,018.5,000.0,027.3,020.4,14.3,0000.0,0006.06,0001.93,0001.30
2023-12-26 22:45:00,SystemResetWarning,0823.7,5.00,000.00,019.1,018.5,000.0,027.3,020.4,14.2,0000.0,0006.09,0001.98,0001.33
2023-12-26 22:46:00,SystemResetWarning,0823.7,5.00,000.00,019.1,018.5,000.0,027.4,020.4,14.2,0000.0,0005.09,0002.04,0001.36
2023-12-26 22:47:00,SystemResetWarning,0823.8,5.00,000.00,019.1,018.5,000.0,027.4,020.4,14.2,0000.0,0004.54,0002.15,0001.39
2023-12-26 22:48:00,SystemResetWarning,0823.8,5.00,000.00,019.1,018.5,000.0,027.4,020.4,14.2,0000.0,0004.66,0002.20,0001.43
2023-12-26 22:49:00,SystemResetWarning,0823.8,5.00,000.00,019.1,018.5,000.0,027.4,020.4,14.2,0000.0,0004.84,0002.26,0001.46
2023-12-26 22:50:00,SystemResetWarning,0823.8,5.01,000.00,019.1,018.5,000.0,027.4,020.4,14.2,0000.0,0004.85,0002.38,0001.52
2023-12-26 22:51:00,SystemResetWarning,0823.8,5.01,000.00,019.1,018.5,000.0,027.4,020.4,14.0,0000.0,0005.05,0002.47,0001.57
2023-12-26 22:52:00,SystemResetWarning,0823.8,5.00,000.00,019.1,018.5,000.0,027.4,020.4,13.9,0000.0,0005.14,0002.54,0001.61
2023-12-26 22:53:00,SystemResetWarning,0823.8,5.00,000.00,019.1,018.5,000.0,027.4,020.5,13.7,0000.0,0006.01,0002.60,0001.65
2023-12-26 22:54:00,SystemResetWarning,0823.9,5.00,000.00,019.2,018.5,000.0,027.4,020.5,13.7,0000.0,0006.52,0002.62,0001.69
2023-12-26 22:55:00,SystemResetWarning,0824.0,5.00,000.00,019.2,018.5,000.0,027.4,020.5,13.9,0000.0,0006.77,0002.73,0001.72
2023-12-26 22:56:00,SystemResetWarning,0824.0,5.00,000.00,019.2,018.5,000.0,027.4,020.5,13.9,0000.0,0006.88,0002.79,0001.75
2023-12-26 22:57:00,SystemResetWarning,0824.0,5.00,000.00,019.2,018.5,000.0,027.4,020.5,13.5,0000.0,0007.36,0002.81,0001.76
2023-12-26 22:58:00,SystemResetWarning,0824.0,4.99,000.00,019.2,018.5,000.0,027.5,020.5,13.5,0000.0,0008.18,0002.82,0001.79
2023-12-26 22:59:00,SystemResetWarning,0824.0,4.99,000.00,019.2,018.5,000.0,027.5,020.5,13.6,0000.0,0009.06,0002.89,0001.83
